^^
Datos históricos de la estación: Murcia-Puente Tocinos
Diario Informe para Octubre 25, 2019 Unidades:  Métrico    Inglés   Ambas
Diario Semanal Mensual Anual Configurable
  Máximo: Mínimo: Media:
Temperatura: 24.7 °C 13.9 °C 18.5 °C
Punto de rocio: 12.4 °C 8.1 °C 9.8 °C
Humedad: 72% 39% 58%
Velocidad viento: 12.9km/h 0.0km/h 6.6km/h
Racha viento: 22.5km/h - -
Viento- - SSW
Presión: 1022.3 hPa 1018.7 hPa -
Precipitación: 0.0 mm    
Historical Graphs
 
 
Tabla de datos para Octubre 25, 2019
Hora Temperatura Punto de rocio Presión Viento Velocidad viento Racha viento Humedad Intensidad lluvia(por hora) Nubes
00:00 17.9 °C 8.2 °C 1021.2 hPa WSW 8.0 km/h 14.5 km/h 53% 0.0 mm CLR
00:05 17.9 °C 8.2 °C 1021.2 hPa WSW 9.7 km/h 14.5 km/h 53% 0.0 mm CLR
00:10 17.9 °C 8.2 °C 1021.0 hPa West 9.7 km/h 14.5 km/h 53% 0.0 mm CLR
00:15 17.8 °C 8.1 °C 1021.0 hPa West 8.0 km/h 14.5 km/h 53% 0.0 mm CLR
00:20 17.7 °C 8.3 °C 1021.0 hPa WSW 8.0 km/h 11.3 km/h 54% 0.0 mm CLR
00:25 17.5 °C 8.3 °C 1021.0 hPa WSW 8.0 km/h 11.3 km/h 55% 0.0 mm CLR
00:30 17.3 °C 8.4 °C 1021.0 hPa WSW 8.0 km/h 14.5 km/h 56% 0.0 mm CLR
00:35 17.1 °C 8.5 °C 1021.0 hPa SW 8.0 km/h 12.9 km/h 57% 0.0 mm CLR
00:40 16.8 °C 8.7 °C 1021.3 hPa SSE 8.0 km/h 16.1 km/h 59% 0.0 mm CLR
00:45 16.4 °C 8.6 °C 1021.3 hPa SE 8.0 km/h 12.9 km/h 60% 0.0 mm CLR
00:50 16.2 °C 8.4 °C 1021.3 hPa SSE 8.0 km/h 16.1 km/h 60% 0.0 mm CLR
00:55 16.3 °C 8.3 °C 1021.4 hPa SSE 9.7 km/h 22.5 km/h 59% 0.0 mm CLR
01:00 16.4 °C 8.4 °C 1021.4 hPa South 9.7 km/h 19.3 km/h 59% 0.0 mm CLR
01:05 16.4 °C 8.4 °C 1021.4 hPa South 12.9 km/h 19.3 km/h 59% 0.0 mm CLR
01:10 16.6 °C 8.3 °C 1021.4 hPa SSW 12.9 km/h 19.3 km/h 58% 0.0 mm CLR
01:15 16.6 °C 8.5 °C 1021.4 hPa SW 11.3 km/h 19.3 km/h 59% 0.0 mm CLR
01:20 16.6 °C 8.6 °C 1021.4 hPa SW 11.3 km/h 16.1 km/h 59% 0.0 mm CLR
01:25 16.7 °C 8.4 °C 1021.3 hPa SW 9.5 km/h 14.8 km/h 58% 0.0 mm CLR
01:30 16.8 °C 8.5 °C 1021.3 hPa SW 9.7 km/h 14.5 km/h 58% 0.0 mm CLR
01:35 16.7 °C 8.4 °C 1021.3 hPa South 8.0 km/h 14.5 km/h 58% 0.0 mm CLR
01:40 16.3 °C 8.3 °C 1021.5 hPa South 8.0 km/h 12.9 km/h 59% 0.0 mm CLR
01:45 16.2 °C 8.4 °C 1021.5 hPa SSW 9.7 km/h 14.5 km/h 60% 0.0 mm CLR
01:50 16.2 °C 8.4 °C 1021.5 hPa SW 9.7 km/h 12.9 km/h 60% 0.0 mm CLR
01:55 16.3 °C 8.3 °C 1021.2 hPa SW 8.0 km/h 11.3 km/h 59% 0.0 mm CLR
02:00 16.3 °C 8.3 °C 1021.2 hPa SW 8.0 km/h 14.5 km/h 59% 0.0 mm CLR
02:05 16.4 °C 8.4 °C 1021.2 hPa SW 8.0 km/h 14.5 km/h 59% 0.0 mm CLR
02:10 16.4 °C 8.4 °C 1021.2 hPa SSW 8.0 km/h 14.5 km/h 59% 0.0 mm CLR
02:15 16.5 °C 8.2 °C 1021.2 hPa SSW 9.7 km/h 12.9 km/h 58% 0.0 mm CLR
02:20 16.6 °C 8.3 °C 1021.2 hPa SW 9.7 km/h 12.9 km/h 58% 0.0 mm CLR
02:25 16.5 °C 8.2 °C 1021.3 hPa SW 8.0 km/h 12.9 km/h 58% 0.0 mm CLR
02:30 16.4 °C 8.1 °C 1021.3 hPa SSW 8.0 km/h 16.1 km/h 58% 0.0 mm CLR
02:35 16.3 °C 8.3 °C 1021.3 hPa SSW 9.7 km/h 14.5 km/h 59% 0.0 mm CLR
02:40 16.1 °C 8.3 °C 1021.2 hPa SSW 9.7 km/h 14.5 km/h 60% 0.0 mm CLR
02:45 15.9 °C 8.4 °C 1021.2 hPa SSW 9.7 km/h 12.9 km/h 61% 0.0 mm CLR
02:50 15.9 °C 8.4 °C 1021.2 hPa SSW 9.7 km/h 8.0 km/h 61% 0.0 mm CLR
02:55 15.8 °C 8.3 °C 1021.3 hPa SSW 4.8 km/h 8.0 km/h 61% 0.0 mm CLR
03:00 15.7 °C 8.4 °C 1021.3 hPa South 4.8 km/h 11.3 km/h 62% 0.0 mm CLR
03:05 15.6 °C 8.3 °C 1021.3 hPa South 8.0 km/h 11.3 km/h 62% 0.0 mm CLR
03:10 15.5 °C 8.4 °C 1021.3 hPa South 8.0 km/h 12.9 km/h 63% 0.0 mm CLR
03:15 15.4 °C 8.6 °C 1021.3 hPa SSW 8.0 km/h 12.9 km/h 64% 0.0 mm CLR
03:20 15.3 °C 8.5 °C 1021.3 hPa SW 8.0 km/h 9.7 km/h 64% 0.0 mm CLR
03:25 15.3 °C 8.5 °C 1021.3 hPa SSW 4.8 km/h 12.9 km/h 64% 0.0 mm CLR
03:30 15.3 °C 8.5 °C 1021.3 hPa SW 4.8 km/h 11.3 km/h 64% 0.0 mm CLR
03:35 15.3 °C 8.5 °C 1021.3 hPa SSW 8.0 km/h 9.7 km/h 64% 0.0 mm CLR
03:40 15.4 °C 8.6 °C 1021.1 hPa South 8.0 km/h 9.7 km/h 64% 0.0 mm CLR
03:45 15.3 °C 8.7 °C 1021.1 hPa SSE 4.8 km/h 11.3 km/h 65% 0.0 mm CLR
03:50 14.9 °C 8.6 °C 1021.1 hPa SSE 4.8 km/h 11.3 km/h 66% 0.0 mm CLR
03:55 14.8 °C 8.5 °C 1021.3 hPa South 8.0 km/h 9.7 km/h 66% 0.0 mm CLR
04:00 14.8 °C 8.5 °C 1021.3 hPa SSW 8.0 km/h 14.5 km/h 66% 0.0 mm CLR
04:05 14.9 °C 8.6 °C 1021.3 hPa SSW 8.0 km/h 11.3 km/h 66% 0.0 mm CLR
04:10 14.9 °C 8.6 °C 1021.0 hPa SW 8.0 km/h 11.3 km/h 66% 0.0 mm CLR
04:15 14.9 °C 8.4 °C 1021.0 hPa SW 8.0 km/h 12.9 km/h 65% 0.0 mm CLR
04:20 15.1 °C 8.6 °C 1021.0 hPa SW 8.0 km/h 11.3 km/h 65% 0.0 mm CLR
04:25 15.2 °C 8.4 °C 1020.9 hPa SW 8.0 km/h 9.7 km/h 64% 0.0 mm CLR
04:30 15.2 °C 8.4 °C 1020.9 hPa SW 8.0 km/h 11.3 km/h 64% 0.0 mm CLR
04:35 15.3 °C 8.5 °C 1020.9 hPa SW 8.0 km/h 11.3 km/h 64% 0.0 mm CLR
04:40 15.3 °C 8.3 °C 1020.9 hPa SW 8.0 km/h 14.5 km/h 63% 0.0 mm CLR
04:45 15.4 °C 8.3 °C 1020.9 hPa SW 9.7 km/h 12.9 km/h 63% 0.0 mm CLR
04:50 15.4 °C 8.4 °C 1020.9 hPa SW 9.7 km/h 16.1 km/h 63% 0.0 mm CLR
04:55 15.6 °C 8.3 °C 1020.7 hPa SW 8.0 km/h 16.1 km/h 62% 0.0 mm CLR
05:00 15.6 °C 8.3 °C 1020.7 hPa SSW 8.0 km/h 12.9 km/h 62% 0.0 mm CLR
05:05 15.6 °C 8.3 °C 1020.7 hPa SSW 8.0 km/h 11.3 km/h 62% 0.0 mm CLR
05:10 15.5 °C 8.5 °C 1020.8 hPa SSW 8.0 km/h 12.9 km/h 63% 0.0 mm CLR
05:15 15.4 °C 8.4 °C 1020.8 hPa SSW 8.0 km/h 16.1 km/h 63% 0.0 mm CLR
05:20 15.3 °C 8.3 °C 1020.8 hPa SSW 8.0 km/h 19.3 km/h 63% 0.0 mm CLR
05:25 15.3 °C 8.5 °C 1020.9 hPa SSW 11.3 km/h 16.1 km/h 64% 0.0 mm CLR
05:30 15.2 °C 8.4 °C 1020.9 hPa SSW 11.3 km/h 20.9 km/h 64% 0.0 mm CLR
05:35 15.2 °C 8.4 °C 1020.9 hPa SSW 11.3 km/h 22.5 km/h 64% 0.0 mm CLR
05:40 15.2 °C 8.4 °C 1021.0 hPa SSW 11.3 km/h 19.3 km/h 64% 0.0 mm CLR
05:45 15.3 °C 8.5 °C 1021.0 hPa SSW 11.3 km/h 19.3 km/h 64% 0.0 mm CLR
05:50 15.3 °C 8.3 °C 1021.0 hPa SSW 11.3 km/h 17.7 km/h 63% 0.0 mm CLR
05:55 15.4 °C 8.4 °C 1021.1 hPa SSW 9.7 km/h 12.9 km/h 63% 0.0 mm CLR
06:00 15.4 °C 8.4 °C 1021.1 hPa SSW 9.7 km/h 12.9 km/h 63% 0.0 mm CLR
06:05 15.5 °C 8.5 °C 1021.1 hPa SSW 9.7 km/h 12.9 km/h 63% 0.0 mm CLR
06:10 15.6 °C 8.3 °C 1021.4 hPa SSW 9.7 km/h 12.9 km/h 62% 0.0 mm CLR
06:15 15.6 °C 8.3 °C 1021.4 hPa SSW 9.7 km/h 19.3 km/h 62% 0.0 mm CLR
06:20 15.5 °C 8.2 °C 1021.4 hPa SSW 9.7 km/h 16.1 km/h 62% 0.0 mm CLR
06:25 15.4 °C 8.4 °C 1021.3 hPa SW 9.7 km/h 16.1 km/h 63% 0.0 mm CLR
06:30 15.4 °C 8.4 °C 1021.3 hPa SW 9.7 km/h 11.3 km/h 63% 0.0 mm CLR
06:35 15.3 °C 8.3 °C 1021.3 hPa SW 6.9 km/h 7.4 km/h 63% 0.0 mm CLR
06:40 15.2 °C 8.2 °C 1021.5 hPa SW 8.0 km/h 12.9 km/h 63% 0.0 mm CLR
06:45 15.2 °C 8.4 °C 1021.5 hPa SW 8.0 km/h 11.3 km/h 64% 0.0 mm CLR
06:50 15.2 °C 8.4 °C 1021.5 hPa SW 8.0 km/h 9.7 km/h 64% 0.0 mm CLR
06:55 15.1 °C 8.4 °C 1021.4 hPa SW 8.0 km/h 9.7 km/h 64% 0.0 mm CLR
07:00 15.1 °C 8.3 °C 1021.4 hPa SW 8.0 km/h 9.7 km/h 64% 0.0 mm CLR
07:05 15.1 °C 8.3 °C 1021.4 hPa SW 4.8 km/h 8.0 km/h 64% 0.0 mm CLR
07:10 14.9 °C 8.2 °C 1021.5 hPa SW 4.8 km/h 8.0 km/h 64% 0.0 mm CLR
07:15 14.8 °C 8.3 °C 1021.5 hPa SW 3.2 km/h 12.9 km/h 65% 0.0 mm CLR
07:20 14.8 °C 8.3 °C 1021.5 hPa SW 3.2 km/h 9.7 km/h 65% 0.0 mm CLR
07:25 14.7 °C 8.2 °C 1021.5 hPa SW 8.0 km/h 9.7 km/h 65% 0.0 mm CLR
07:30 14.7 °C 8.2 °C 1021.5 hPa WSW 8.0 km/h 9.7 km/h 65% 0.0 mm CLR
07:35 14.6 °C 8.3 °C 1021.5 hPa WSW 3.2 km/h 4.8 km/h 66% 0.0 mm CLR
07:40 14.4 °C 8.3 °C 1021.5 hPa WSW 3.2 km/h 3.2 km/h 67% 0.0 mm CLR
07:45 14.3 °C 8.3 °C 1021.5 hPa Calm     67% 0.0 mm CLR
07:50 14.2 °C 8.4 °C 1021.5 hPa Calm   3.2 km/h 68% 0.0 mm CLR
07:55 14.1 °C 8.3 °C 1021.5 hPa Calm   4.8 km/h 68% 0.0 mm CLR
08:00 14.1 °C 8.4 °C 1021.5 hPa Calm   4.8 km/h 69% 0.0 mm CLR
08:05 13.9 °C 8.3 °C 1021.5 hPa WSW 3.2 km/h 4.8 km/h 69% 0.0 mm CLR
08:10 13.9 °C 8.3 °C 1021.5 hPa WSW 3.2 km/h 8.0 km/h 69% 0.0 mm CLR
08:15 14.1 °C 8.5 °C 1021.5 hPa SW 3.2 km/h 8.0 km/h 69% 0.0 mm CLR
08:20 14.1 °C 8.3 °C 1021.5 hPa SW 3.2 km/h 9.7 km/h 68% 0.0 mm CLR
08:25 14.2 °C 8.4 °C 1021.6 hPa SW 4.8 km/h 9.7 km/h 68% 0.0 mm CLR
08:30 14.2 °C 8.4 °C 1021.6 hPa SW 4.8 km/h 9.7 km/h 68% 0.0 mm CLR
08:35 14.1 °C 8.3 °C 1021.6 hPa SW 4.8 km/h 8.0 km/h 68% 0.0 mm CLR
08:40 14.1 °C 8.3 °C 1021.5 hPa SW 4.8 km/h 8.0 km/h 68% 0.0 mm CLR
08:45 14.1 °C 8.5 °C 1021.5 hPa WSW 4.8 km/h 8.0 km/h 69% 0.0 mm CLR
08:50 13.9 °C 8.3 °C 1021.5 hPa SW 4.8 km/h 9.7 km/h 69% 0.0 mm CLR
08:55 13.9 °C 8.3 °C 1021.7 hPa SW 4.8 km/h 8.0 km/h 69% 0.0 mm CLR
09:00 14.1 °C 8.5 °C 1021.7 hPa SW 4.8 km/h 8.0 km/h 69% 0.0 mm CLR
09:05 14.2 °C 8.6 °C 1021.7 hPa SW 3.2 km/h 11.3 km/h 69% 0.0 mm CLR
09:10 14.3 °C 8.5 °C 1022.0 hPa SSW 3.2 km/h 9.7 km/h 68% 0.0 mm CLR
09:15 14.6 °C 8.5 °C 1022.0 hPa SSW 8.0 km/h 11.3 km/h 67% 0.0 mm CLR
09:20 14.7 °C 8.4 °C 1022.0 hPa SSW 8.0 km/h 14.5 km/h 66% 0.0 mm CLR
09:25 14.8 °C 8.3 °C 1022.0 hPa SSW 9.7 km/h 14.5 km/h 65% 0.0 mm CLR
09:30 15.0 °C 8.4 °C 1022.0 hPa SSW 9.7 km/h 12.9 km/h 65% 0.0 mm CLR
09:35 15.2 °C 8.6 °C 1022.0 hPa SSW 8.0 km/h 12.9 km/h 65% 0.0 mm CLR
09:40 15.2 °C 8.4 °C 1022.1 hPa SSW 8.0 km/h 14.5 km/h 64% 0.0 mm CLR
09:45 15.3 °C 8.6 °C 1022.1 hPa SSW 9.7 km/h 16.1 km/h 64% 0.0 mm CLR
09:50 15.4 °C 8.7 °C 1022.1 hPa SSW 9.7 km/h 16.1 km/h 64% 0.0 mm CLR
09:55 15.7 °C 8.6 °C 1022.3 hPa SSW 9.7 km/h 12.9 km/h 63% 0.0 mm CLR
10:00 15.8 °C 8.8 °C 1022.3 hPa SSW 9.7 km/h 12.9 km/h 63% 0.0 mm CLR
10:05 15.9 °C 8.6 °C 1022.3 hPa SW 8.0 km/h 12.9 km/h 62% 0.0 mm CLR
10:10 16.1 °C 8.8 °C 1022.1 hPa SSW 8.0 km/h 12.9 km/h 62% 0.0 mm CLR
10:15 16.2 °C 8.7 °C 1022.1 hPa SSW 8.0 km/h 16.1 km/h 61% 0.0 mm CLR
10:20 16.4 °C 8.8 °C 1022.1 hPa SE 8.4 km/h 7.4 km/h 61% 0.0 mm CLR
10:25 16.7 °C 9.1 °C 1022.2 hPa SSW 8.0 km/h 16.1 km/h 61% 0.0 mm CLR
10:30 16.8 °C 9.2 °C 1022.2 hPa SSW 8.0 km/h 16.1 km/h 61% 0.0 mm CLR
10:35 16.9 °C 9.1 °C 1022.2 hPa SW 8.0 km/h 16.1 km/h 60% 0.0 mm CLR
10:40 17.0 °C 9.2 °C 1022.2 hPa SW 8.0 km/h 14.5 km/h 60% 0.0 mm CLR
10:45 17.1 °C 9.3 °C 1022.2 hPa SW 8.0 km/h 14.5 km/h 60% 0.0 mm CLR
10:50 17.3 °C 9.4 °C 1022.2 hPa SSW 8.0 km/h 11.3 km/h 60% 0.0 mm CLR
10:55 17.3 °C 9.5 °C 1022.1 hPa SSW 8.0 km/h 14.5 km/h 60% 0.0 mm CLR
11:00 17.6 °C 9.7 °C 1022.1 hPa SSW 8.0 km/h 16.1 km/h 60% 0.0 mm CLR
11:05 17.7 °C 9.8 °C 1022.1 hPa SSW 9.7 km/h 12.9 km/h 60% 0.0 mm CLR
11:10 17.8 °C 9.7 °C 1021.9 hPa SSW 9.7 km/h 12.9 km/h 59% 0.0 mm CLR
11:15 18.0 °C 9.6 °C 1021.9 hPa SW 6.9 km/h 7.4 km/h 58% 0.0 mm CLR
11:20 18.3 °C 9.6 °C 1021.9 hPa WSW 8.0 km/h 12.9 km/h 57% 0.0 mm CLR
11:25 18.4 °C 9.4 °C 1021.8 hPa WSW 8.0 km/h 16.1 km/h 56% 0.0 mm CLR
11:30 18.6 °C 9.4 °C 1021.8 hPa SW 8.0 km/h 16.1 km/h 55% 0.0 mm CLR
11:35 18.7 °C 9.4 °C 1021.8 hPa WSW 8.0 km/h 19.3 km/h 55% 0.0 mm CLR
11:40 18.7 °C 9.5 °C 1021.8 hPa WSW 8.0 km/h 17.7 km/h 55% 0.0 mm CLR
11:45 18.9 °C 9.4 °C 1021.8 hPa WSW 11.3 km/h 14.5 km/h 54% 0.0 mm CLR
11:50 19.2 °C 9.4 °C 1021.8 hPa West 11.3 km/h 14.5 km/h 53% 0.0 mm CLR
11:55 19.3 °C 9.5 °C 1021.8 hPa West 8.0 km/h 12.9 km/h 53% 0.0 mm CLR
12:00 19.6 °C 9.8 °C 1021.8 hPa WSW 8.0 km/h 19.3 km/h 53% 0.0 mm CLR
12:05 19.7 °C 9.6 °C 1021.8 hPa West 8.0 km/h 14.5 km/h 52% 0.0 mm CLR
12:10 19.8 °C 9.6 °C 1021.6 hPa WSW 8.0 km/h 14.5 km/h 52% 0.0 mm CLR
12:15 19.9 °C 9.4 °C 1021.6 hPa SSW 7.6 km/h 7.4 km/h 51% 0.0 mm CLR
12:20 19.9 °C 9.7 °C 1021.6 hPa SW 8.0 km/h 12.9 km/h 52% 0.0 mm CLR
12:25 20.0 °C 9.8 °C 1021.7 hPa SW 8.0 km/h 8.0 km/h 52% 0.0 mm CLR
12:30 20.3 °C 9.8 °C 1021.7 hPa South 8.0 km/h 12.9 km/h 51% 0.0 mm CLR
12:35 20.3 °C 9.8 °C 1021.7 hPa South 4.8 km/h 11.3 km/h 51% 0.0 mm CLR
12:40 20.5 °C 9.7 °C 1021.6 hPa SSW 4.8 km/h 12.9 km/h 50% 0.0 mm CLR
12:45 20.6 °C 9.8 °C 1021.6 hPa WSW 8.0 km/h 12.9 km/h 50% 0.0 mm CLR
12:50 20.7 °C 9.9 °C 1021.6 hPa WSW 8.0 km/h 14.5 km/h 50% 0.0 mm CLR
12:55 20.7 °C 9.9 °C 1021.4 hPa SW 8.0 km/h 16.1 km/h 50% 0.0 mm CLR
13:00 20.7 °C 9.9 °C 1021.4 hPa SSW 8.0 km/h 16.1 km/h 50% 0.0 mm CLR
13:05 20.8 °C 9.7 °C 1021.4 hPa SW 8.0 km/h 12.9 km/h 49% 0.0 mm CLR
13:10 20.9 °C 9.7 °C 1021.4 hPa WSW 8.0 km/h 12.9 km/h 49% 0.0 mm CLR
13:15 21.1 °C 9.9 °C 1021.4 hPa SSW 7.6 km/h 9.3 km/h 49% 0.0 mm CLR
13:20 21.2 °C 10.1 °C 1021.4 hPa SSW 8.0 km/h 12.9 km/h 49% 0.0 mm CLR
13:25 21.4 °C 10.2 °C 1021.1 hPa South 9.7 km/h 12.9 km/h 49% 0.0 mm CLR
13:30 21.6 °C 10.1 °C 1021.1 hPa SSW 9.7 km/h 12.9 km/h 48% 0.0 mm CLR
13:35 21.7 °C 10.2 °C 1021.1 hPa SSW 8.0 km/h 11.3 km/h 48% 0.0 mm CLR
13:40 21.9 °C 10.1 °C 1021.0 hPa SSW 8.0 km/h 12.9 km/h 47% 0.0 mm CLR
13:45 22.1 °C 9.9 °C 1021.0 hPa WSW 4.8 km/h 14.5 km/h 46% 0.0 mm CLR
13:50 22.2 °C 10.0 °C 1021.0 hPa WNW 4.8 km/h 14.5 km/h 46% 0.0 mm CLR
13:55 22.2 °C 10.1 °C 1020.8 hPa West 8.0 km/h 17.7 km/h 46% 0.0 mm CLR
14:00 22.2 °C 10.0 °C 1020.8 hPa WSW 8.0 km/h 14.5 km/h 46% 0.0 mm CLR
14:05 22.3 °C 10.1 °C 1020.8 hPa SW 8.0 km/h 14.5 km/h 46% 0.0 mm CLR
14:10 22.3 °C 10.2 °C 1020.5 hPa SSW 8.0 km/h 19.3 km/h 46% 0.0 mm CLR
14:15 22.7 °C 10.5 °C 1020.5 hPa SW 8.0 km/h 9.7 km/h 46% 0.0 mm CLR
14:20 22.9 °C 10.0 °C 1020.5 hPa West 8.0 km/h 9.7 km/h 44% 0.0 mm CLR
14:25 22.9 °C 10.0 °C 1020.4 hPa West 4.8 km/h 14.5 km/h 44% 0.0 mm CLR
14:30 22.8 °C 10.2 °C 1020.4 hPa WSW 4.8 km/h 14.5 km/h 45% 0.0 mm CLR
14:35 22.8 °C 10.3 °C 1020.4 hPa WNW 8.0 km/h 14.5 km/h 45% 0.0 mm CLR
14:40 22.9 °C 10.4 °C 1020.1 hPa NNW 8.0 km/h 9.7 km/h 45% 0.0 mm CLR
14:45 23.1 °C 10.2 °C 1020.1 hPa West 4.8 km/h 11.3 km/h 44% 0.0 mm CLR
14:50 22.9 °C 10.3 °C 1020.1 hPa WSW 4.8 km/h 14.5 km/h 45% 0.0 mm CLR
14:55 22.9 °C 10.3 °C 1019.9 hPa SW 8.0 km/h 11.3 km/h 45% 0.0 mm CLR
15:00 22.9 °C 10.3 °C 1019.9 hPa SSW 8.0 km/h 8.0 km/h 45% 0.0 mm CLR
15:05 23.1 °C 10.2 °C 1019.9 hPa SSW 3.2 km/h 11.3 km/h 44% 0.0 mm CLR
15:10 23.2 °C 10.3 °C 1020.0 hPa South 3.2 km/h 9.7 km/h 44% 0.0 mm CLR
15:15 23.2 °C 10.3 °C 1020.0 hPa ESE 8.0 km/h 9.7 km/h 44% 0.0 mm CLR
15:20 23.3 °C 10.4 °C 1020.0 hPa ESE 8.0 km/h 8.0 km/h 44% 0.0 mm CLR
15:25 23.5 °C 10.5 °C 1019.7 hPa SE 3.2 km/h 8.0 km/h 44% 0.0 mm CLR
15:30 23.6 °C 10.6 °C 1019.7 hPa ESE 3.2 km/h 9.7 km/h 44% 0.0 mm CLR
15:35 23.4 °C 10.2 °C 1019.7 hPa ESE 3.2 km/h 9.7 km/h 43% 0.0 mm CLR
15:40 23.2 °C 10.3 °C 1019.6 hPa East 3.2 km/h 11.3 km/h 44% 0.0 mm CLR
15:45 23.2 °C 10.3 °C 1019.6 hPa NE 4.8 km/h 9.7 km/h 44% 0.0 mm CLR
15:50 23.2 °C 10.3 °C 1019.6 hPa ENE 4.8 km/h 9.7 km/h 44% 0.0 mm CLR
15:55 23.3 °C 10.3 °C 1019.4 hPa East 3.2 km/h 11.3 km/h 44% 0.0 mm CLR
16:00 23.4 °C 10.1 °C 1019.4 hPa South 3.2 km/h 9.7 km/h 43% 0.0 mm CLR
16:05 23.6 °C 10.2 °C 1019.4 hPa WSW 4.8 km/h 9.7 km/h 43% 0.0 mm CLR
16:10 23.7 °C 10.4 °C 1019.3 hPa NW 4.8 km/h 8.0 km/h 43% 0.0 mm CLR
16:15 23.9 °C 10.2 °C 1019.3 hPa NW 3.2 km/h 9.7 km/h 42% 0.0 mm CLR
16:20 23.9 °C 9.9 °C 1019.3 hPa WNW 3.2 km/h 8.0 km/h 41% 0.0 mm CLR
16:25 24.2 °C 10.5 °C 1019.3 hPa NNW 3.2 km/h 4.8 km/h 42% 0.0 mm CLR
16:30 24.4 °C 10.3 °C 1019.3 hPa East 3.2 km/h 8.0 km/h 41% 0.0 mm CLR
16:35 24.5 °C 10.0 °C 1019.3 hPa SSE 3.2 km/h 8.0 km/h 40% 0.0 mm CLR
16:40 24.6 °C 10.4 °C 1019.2 hPa SSW 3.2 km/h 8.0 km/h 41% 0.0 mm CLR
16:45 24.7 °C 9.8 °C 1019.2 hPa South 3.2 km/h 8.0 km/h 39% 0.0 mm CLR
16:50 24.6 °C 10.1 °C 1019.2 hPa SE 3.2 km/h 8.0 km/h 40% 0.0 mm CLR
16:55 24.6 °C 10.4 °C 1019.1 hPa SE 3.2 km/h 9.7 km/h 41% 0.0 mm CLR
17:00 24.2 °C 10.5 °C 1019.1 hPa ESE 3.2 km/h 12.9 km/h 42% 0.0 mm CLR
17:05 24.0 °C 10.3 °C 1019.1 hPa ESE 8.0 km/h 12.9 km/h 42% 0.0 mm CLR
17:10 23.9 °C 10.6 °C 1019.0 hPa ESE 8.0 km/h 14.5 km/h 43% 0.0 mm CLR
17:15 23.8 °C 11.2 °C 1019.0 hPa ESE 9.7 km/h 19.3 km/h 45% 0.0 mm CLR
17:20 23.7 °C 11.7 °C 1019.0 hPa ESE 9.7 km/h 16.1 km/h 47% 0.0 mm CLR
17:25 23.7 °C 12.1 °C 1019.1 hPa ESE 11.3 km/h 19.3 km/h 48% 0.0 mm CLR
17:30 23.6 °C 11.7 °C 1019.1 hPa ESE 11.3 km/h 19.3 km/h 47% 0.0 mm CLR
17:35 23.6 °C 12.0 °C 1019.1 hPa ESE 11.3 km/h 19.3 km/h 48% 0.0 mm CLR
17:40 23.4 °C 11.8 °C 1018.9 hPa ESE 10.3 km/h 16.7 km/h 48% 0.0 mm CLR
17:45 23.3 °C 11.7 °C 1018.9 hPa ESE 11.3 km/h 16.1 km/h 48% 0.0 mm CLR
17:50 23.3 °C 12.0 °C 1018.9 hPa SE 11.3 km/h 16.1 km/h 49% 0.0 mm CLR
17:55 23.2 °C 11.9 °C 1018.9 hPa SE 9.7 km/h 16.1 km/h 49% 0.0 mm CLR
18:00 23.2 °C 12.2 °C 1018.9 hPa SE 9.7 km/h 11.3 km/h 50% 0.0 mm CLR
18:05 23.2 °C 12.2 °C 1018.9 hPa ESE 9.7 km/h 11.3 km/h 50% 0.0 mm CLR
18:10 23.2 °C 12.2 °C 1018.9 hPa SE 9.7 km/h 16.1 km/h 50% 0.0 mm CLR
18:15 23.2 °C 12.2 °C 1018.9 hPa SSE 9.7 km/h 14.5 km/h 50% 0.0 mm CLR
18:20 23.1 °C 12.1 °C 1018.9 hPa SE 9.7 km/h 12.9 km/h 50% 0.0 mm CLR
18:25 23.1 °C 12.4 °C 1018.8 hPa SE 8.0 km/h 11.3 km/h 51% 0.0 mm CLR
18:30 23.2 °C 12.2 °C 1018.8 hPa SE 8.0 km/h 11.3 km/h 50% 0.0 mm CLR
18:35 23.1 °C 12.4 °C 1018.8 hPa SSE 8.0 km/h 9.7 km/h 51% 0.0 mm CLR
18:40 23.2 °C 12.2 °C 1018.7 hPa South 8.0 km/h 11.3 km/h 50% 0.0 mm CLR
18:45 23.2 °C 12.4 °C 1018.7 hPa South 4.8 km/h 8.0 km/h 51% 0.0 mm CLR
18:50 22.9 °C 12.3 °C 1018.7 hPa SSE 4.8 km/h 11.3 km/h 51% 0.0 mm CLR
18:55 22.8 °C 12.1 °C 1018.8 hPa South 8.0 km/h 12.9 km/h 51% 0.0 mm CLR
19:00 22.6 °C 11.9 °C 1018.8 hPa SSW 8.0 km/h 12.9 km/h 51% 0.0 mm CLR
19:05 22.4 °C 11.8 °C 1018.8 hPa SSW 8.0 km/h 9.7 km/h 51% 0.0 mm CLR
19:10 22.3 °C 11.9 °C 1018.9 hPa South 8.0 km/h 9.7 km/h 52% 0.0 mm CLR
19:15 22.1 °C 11.8 °C 1018.9 hPa South 8.0 km/h 11.3 km/h 52% 0.0 mm CLR
19:20 22.0 °C 12.0 °C 1018.9 hPa South 8.0 km/h 9.7 km/h 53% 0.0 mm CLR
19:25 21.9 °C 11.9 °C 1019.0 hPa SSW 4.8 km/h 8.0 km/h 53% 0.0 mm CLR
19:30 21.8 °C 12.1 °C 1019.0 hPa SSW 5.8 km/h 3.7 km/h 54% 0.0 mm CLR
19:35 21.7 °C 12.3 °C 1019.0 hPa South 3.2 km/h 8.0 km/h 55% 0.0 mm CLR
19:40 21.6 °C 12.4 °C 1019.2 hPa East 2.9 km/h   56% 0.0 mm CLR
19:45 21.4 °C 12.3 °C 1019.2 hPa East 3.2 km/h 4.8 km/h 56% 0.0 mm CLR
19:50 21.2 °C 12.1 °C 1019.2 hPa East 3.2 km/h 1.6 km/h 56% 0.0 mm CLR
19:55 21.1 °C 12.2 °C 1019.4 hPa Calm   11.3 km/h 57% 0.0 mm CLR
20:00 20.8 °C 11.9 °C 1019.4 hPa Calm   11.3 km/h 57% 0.0 mm CLR
20:05 20.6 °C 11.8 °C 1019.4 hPa SSW 8.0 km/h 16.1 km/h 57% 0.0 mm CLR
20:10 20.4 °C 11.8 °C 1019.5 hPa SW 8.0 km/h 14.5 km/h 58% 0.0 mm CLR
20:15 20.2 °C 11.7 °C 1019.5 hPa SW 9.7 km/h 11.3 km/h 58% 0.0 mm CLR
20:20 20.1 °C 11.6 °C 1019.5 hPa SW 9.7 km/h 11.3 km/h 58% 0.0 mm CLR
20:25 20.0 °C 11.7 °C 1019.7 hPa SSW 8.0 km/h 11.3 km/h 59% 0.0 mm CLR
20:30 19.9 °C 11.6 °C 1019.7 hPa SSW 8.0 km/h 11.3 km/h 59% 0.0 mm CLR
20:35 19.8 °C 11.8 °C 1019.7 hPa South 8.0 km/h 9.7 km/h 60% 0.0 mm CLR
20:40 19.7 °C 11.9 °C 1019.9 hPa SE 8.0 km/h 8.0 km/h 61% 0.0 mm CLR
20:45 19.6 °C 12.1 °C 1019.9 hPa SE 4.8 km/h 9.7 km/h 62% 0.0 mm CLR
20:50 19.4 °C 11.9 °C 1019.9 hPa ESE 4.8 km/h 9.7 km/h 62% 0.0 mm CLR
20:55 19.4 °C 11.9 °C 1020.1 hPa ENE 3.2 km/h 6.4 km/h 62% 0.0 mm CLR
21:00 19.3 °C 11.8 °C 1020.1 hPa ENE 3.2 km/h 8.0 km/h 62% 0.0 mm CLR
21:05 19.2 °C 12.0 °C 1020.1 hPa ENE 3.2 km/h 4.8 km/h 63% 0.0 mm CLR
21:10 19.1 °C 11.7 °C 1020.1 hPa ENE 3.2 km/h 4.8 km/h 62% 0.0 mm CLR
21:15 19.1 °C 11.4 °C 1020.1 hPa East 1.6 km/h 8.0 km/h 61% 0.0 mm CLR
21:20 19.1 °C 11.4 °C 1020.1 hPa SSE 1.6 km/h 8.0 km/h 61% 0.0 mm CLR
21:25 19.1 °C 11.2 °C 1020.0 hPa SSW 3.2 km/h 8.0 km/h 60% 0.0 mm CLR
21:30 19.1 °C 11.2 °C 1020.0 hPa South 3.2 km/h 8.0 km/h 60% 0.0 mm CLR
21:35 19.2 °C 11.2 °C 1020.0 hPa SSE 4.8 km/h 8.0 km/h 60% 0.0 mm CLR
21:40 19.1 °C 11.4 °C 1020.2 hPa SSE 4.8 km/h 4.8 km/h 61% 0.0 mm CLR
21:45 19.1 °C 11.6 °C 1020.2 hPa SSE 3.2 km/h 4.8 km/h 62% 0.0 mm CLR
21:50 18.9 °C 11.4 °C 1020.2 hPa East 2.9 km/h 3.7 km/h 62% 0.0 mm CLR
21:55 18.8 °C 11.6 °C 1020.2 hPa ESE 1.6 km/h 3.2 km/h 63% 0.0 mm CLR
22:00 18.7 °C 11.5 °C 1020.2 hPa East 1.6 km/h   63% 0.0 mm CLR
22:05 18.6 °C 11.7 °C 1020.2 hPa Calm     64% 0.0 mm CLR
22:10 18.5 °C 11.6 °C 1020.2 hPa Calm   3.2 km/h 64% 0.0 mm CLR
22:15 18.4 °C 11.7 °C 1020.2 hPa Calm   3.2 km/h 65% 0.0 mm CLR
22:20 18.3 °C 11.6 °C 1020.2 hPa Calm     65% 0.0 mm CLR
22:25 18.3 °C 11.8 °C 1020.2 hPa Calm   1.6 km/h 66% 0.0 mm CLR
22:30 18.2 °C 11.7 °C 1020.2 hPa Calm   4.8 km/h 66% 0.0 mm CLR
22:35 18.2 °C 11.7 °C 1020.2 hPa Calm   4.8 km/h 66% 0.0 mm CLR
22:40 18.1 °C 11.9 °C 1020.2 hPa Calm   6.4 km/h 67% 0.0 mm CLR
22:45 18.0 °C 11.8 °C 1020.2 hPa ESE 3.2 km/h 4.8 km/h 67% 0.0 mm CLR
22:50 17.8 °C 11.8 °C 1020.2 hPa ESE 3.2 km/h 1.6 km/h 68% 0.0 mm CLR
22:55 17.7 °C 11.7 °C 1020.3 hPa Calm   4.8 km/h 68% 0.0 mm CLR
23:00 17.6 °C 11.8 °C 1020.3 hPa Calm   3.2 km/h 69% 0.0 mm CLR
23:05 17.4 °C 11.7 °C 1020.3 hPa ESE 1.6 km/h   69% 0.0 mm CLR
23:10 17.3 °C 11.8 °C 1020.3 hPa ESE 1.6 km/h 8.0 km/h 70% 0.0 mm CLR
23:15 17.2 °C 11.9 °C 1020.3 hPa SE 3.2 km/h 6.4 km/h 71% 0.0 mm CLR
23:20 17.1 °C 11.8 °C 1020.3 hPa SE 3.2 km/h 1.6 km/h 71% 0.0 mm CLR
23:25 17.0 °C 11.9 °C 1020.6 hPa Calm   1.6 km/h 72% 0.0 mm CLR
23:30 16.9 °C 11.8 °C 1020.6 hPa Calm   3.2 km/h 72% 0.0 mm CLR
23:35 16.9 °C 11.8 °C 1020.6 hPa Calm   9.7 km/h 72% 0.0 mm CLR
23:40 16.9 °C 11.8 °C 1020.4 hPa Calm   9.7 km/h 72% 0.0 mm CLR
23:45 16.9 °C 11.6 °C 1020.4 hPa SSW 4.8 km/h 9.7 km/h 71% 0.0 mm CLR
23:50 16.9 °C 11.6 °C 1020.4 hPa SW 4.8 km/h 9.7 km/h 71% 0.0 mm CLR
23:55 16.9 °C 11.4 °C 1020.3 hPa SW 8.0 km/h 9.7 km/h 70% 0.0 mm CLR
Murcia-Puente Tocinos, España
Compliments of Weather Underground - 2.75 mb

La estación de MeteoMurcia.com, publica sus datos en los siguientes proyectos:

Weather Underground PWS IMURCIAP2 Meteoclimatic www.awekas.at

W3Counter
Web Analytics